| time (UTC) | temp C | wind direction | speed KPH | gust KPH | rain 1hr cm | rain 24hr cm | rain mn cm | humidity % | barometer mb |
| 20260903181517 | 12 | 242 | 0.0 | 9.7 | 0.10 | 1.22 | 0.43 | 100 | 1010.1 |
| 20260903180012 | 12 | 194 | 1.6 | 12.9 | 0.15 | 1.35 | 0.43 | 100 | 1010.1 |
| 20260903174508 | 12 | 164 | 0.0 | 11.3 | 0.10 | 1.30 | 0.38 | 100 | 1010.1 |
| 20260903173004 | 12 | 182 | 0.0 | 9.7 | 0.08 | 1.27 | 0.36 | 100 | 1010.0 |
| 20260903171612 | 12 | 227 | 0.0 | 9.7 | 0.05 | 1.24 | 0.33 | 1 | 1010.2 |
| 20260903170104 | 12 | 152 | 0.0 | 9.7 | 0.00 | 1.32 | 0.28 | 9 | 1010.2 |
| 20260903164551 | 12 | 194 | 3.2 | 12.9 | 0.00 | 1.32 | 0.28 | 4 | 1010.0 |
| 20260903163046 | 12 | 206 | 1.6 | 11.3 | 0.00 | 1.32 | 0.28 | 100 | 1010.1 |
| 20260903161541 | 12 | 227 | 1.6 | 14.5 | 0.00 | 1.32 | 0.28 | 100 | 1010.2 |
| 20260903160044 | 12 | 314 | 1.6 | 11.3 | 0.00 | 1.32 | 0.28 | 100 | 1010.1 |
| 20260903154533 | 12 | 211 | 3.2 | 16.1 | 0.00 | 1.32 | 0.28 | 100 | 1010.2 |
| 20260903153029 | 11 | 207 | 1.6 | 11.3 | 0.00 | 1.32 | 0.28 | 100 | 1010.1 |
| 20260903151524 | 11 | 207 | 3.2 | 11.3 | 0.00 | 1.32 | 0.28 | 100 | 1010.0 |
| 20260903150019 | 11 | 207 | 1.6 | 12.9 | 0.00 | 1.32 | 0.28 | 100 | 1009.9 |
| 20260903144529 | 11 | 143 | 1.6 | 11.3 | 0.03 | 1.32 | 0.28 | 100 | 1009.9 |
| 20260903143012 | 11 | 213 | 0.0 | 4.8 | 0.15 | 1.32 | 0.28 | 100 | 1009.8 |
| 20260903141510 | 11 | 286 | 0.0 | 1.6 | 0.23 | 1.32 | 0.28 | 100 | 1009.9 |
| 20260903140002 | 11 | 281 | 0.0 | 1.6 | 0.25 | 1.32 | 0.28 | 100 | 1009.9 |
| 20260903134601 | 11 | 281 | 0.0 | 4.8 | 0.25 | 1.30 | 0.25 | 100 | 1010.1 |
| 20260903133053 | 11 | 287 | 0.0 | 4.8 | 0.13 | 1.17 | 0.13 | 100 | 1010.0 |
| 20260903131604 | 11 | 273 | 0.0 | 4.8 | 0.05 | 1.09 | 0.05 | 100 | 1010.0 |
| 20260903130048 | 11 | 237 | 1.6 | 11.3 | 0.03 | 1.07 | 0.03 | 100 | 1009.7 |
| 20260903124541 | 11 | 194 | 0.0 | 8.0 | 0.00 | 1.04 | 0.00 | 100 | 1009.6 |
| 20260903123042 | 11 | 196 | 3.2 | 11.3 | 0.00 | 1.04 | 0.00 | 100 | 1009.7 |
| 20260903121550 | 11 | 115 | 0.0 | 11.3 | 0.00 | 1.04 | 0.00 | 100 | 1009.7 |
| 20260903120026 | 11 | 200 | 3.2 | 8.0 | 0.00 | 1.04 | 0.00 | 100 | 1009.8 |
| 20260903114522 | 11 | 177 | 1.6 | 11.3 | 0.00 | 1.04 | 0.00 | 100 | 1009.8 |
| 20260903113018 | 11 | 205 | 0.0 | 11.3 | 0.00 | 1.04 | 0.00 | 100 | 1009.8 |
| 20260903111513 | 11 | 172 | 0.0 | 8.0 | 0.00 | 1.04 | 0.00 | 100 | 1009.9 |
| 20260903110008 | 11 | 175 | 0.0 | 6.4 | 0.00 | 1.04 | 0.00 | 100 | 1009.9 |
| 20260903104505 | 11 | 167 | 0.0 | 6.4 | 0.00 | 1.04 | 0.00 | 100 | 1010.0 |
| 20260903103102 | 11 | 266 | 1.6 | 11.3 | 0.00 | 1.04 | 0.00 | 100 | 1010.1 |
| 20260903101556 | 11 | 255 | 3.2 | 11.3 | 0.00 | 1.04 | 0.00 | 100 | 1010.2 |
| 20260903100052 | 11 | 222 | 1.6 | 11.3 | 0.00 | 1.04 | 0.00 | 100 | 1010.0 |
| 20260903094553 | 11 | 165 | 3.2 | 11.3 | 0.00 | 1.04 | 0.00 | 100 | 1010.0 |
| 20260903093052 | 11 | 225 | 3.2 | 11.3 | 0.00 | 1.04 | 0.00 | 100 | 1010.0 |
| 20260903091550 | 11 | 204 | 4.8 | 14.5 | 0.00 | 1.04 | 0.00 | 100 | 1010.1 |
| 20260903090033 | 11 | 217 | 0.0 | 9.7 | 0.00 | 1.04 | 0.00 | 100 | 1010.3 |
| 20260903084529 | 11 | 144 | 1.6 | 8.0 | 0.00 | 1.04 | 0.00 | 100 | 1010.3 |
| 20260903083025 | 11 | 313 | 0.0 | 4.8 | 0.00 | 1.04 | 0.00 | 100 | 1010.3 |
| 20260903081522 | 11 | 221 | 0.0 | 9.7 | 0.00 | 1.04 | 0.00 | 100 | 1010.5 |
| 20260903080015 | 11 | 208 | 1.6 | 11.3 | 0.00 | 1.04 | 0.00 | 100 | 1010.4 |
| 20260903074511 | 11 | 178 | 1.6 | 9.7 | 0.00 | 1.04 | 0.00 | 100 | 1010.4 |
| 20260903073017 | 11 | 246 | 1.6 | 11.3 | 0.00 | 1.04 | 0.00 | 100 | 1010.2 |
| 20260903071503 | 11 | 169 | 1.6 | 11.3 | 0.00 | 1.04 | 0.00 | 100 | 1010.2 |
| 20260903070059 | 11 | 163 | 1.6 | 11.3 | 0.00 | 1.04 | 1.04 | 100 | 1010.1 |
| 20260903064555 | 11 | 178 | 1.6 | 11.3 | 0.00 | 1.04 | 1.04 | 100 | 1010.1 |
| 20260903063051 | 11 | 235 | 1.6 | 4.8 | 0.00 | 1.04 | 1.04 | 100 | 1010.2 |
| 20260903061549 | 12 | 201 | 1.6 | 4.8 | 0.00 | 1.04 | 1.04 | 100 | 1010.3 |
| 20260903060053 | 12 | 217 | 0.0 | 8.0 | 0.00 | 1.04 | 1.04 | 100 | 1010.3 |
| 20260903054535 | 12 | 158 | 0.0 | 6.4 | 0.00 | 1.04 | 1.04 | 100 | 1010.2 |
| 20260903053035 | 12 | 168 | 3.2 | 11.3 | 0.00 | 1.04 | 1.04 | 100 | 1010.2 |
| 20260903051526 | 12 | 207 | 0.0 | 3.2 | 0.00 | 1.04 | 1.04 | 100 | 1010.2 |
| 20260903050022 | 12 | 211 | 1.6 | 9.7 | 0.00 | 1.04 | 1.04 | 100 | 1010.1 |
| 20260903044519 | 12 | 161 | 1.6 | 8.0 | 0.00 | 1.04 | 1.04 | 100 | 1010.0 |
| 20260903043019 | 12 | 256 | 1.6 | 8.0 | 0.00 | 1.04 | 1.04 | 100 | 1009.9 |
| 20260903041511 | 12 | 193 | 0.0 | 8.0 | 0.00 | 1.04 | 1.04 | 100 | 1009.8 |
| 20260903040010 | 12 | 102 | 1.6 | 9.7 | 0.00 | 1.04 | 1.04 | 100 | 1009.6 |
| 20260903034600 | 12 | 169 | 0.0 | 1.6 | 0.00 | 1.04 | 1.04 | 100 | 1009.6 |
| 20260903033056 | 12 | 162 | 0.0 | 1.6 | 0.00 | 1.04 | 1.04 | 100 | 1009.5 |
| 20260903031551 | 12 | 162 | 0.0 | 1.6 | 0.00 | 1.04 | 1.04 | 100 | 1009.4 |
| 20260903030051 | 12 | 162 | 0.0 | 1.6 | 0.00 | 1.04 | 1.04 | 100 | 1009.0 |
| 20260903024541 | 12 | 168 | 0.0 | 4.8 | 0.00 | 1.04 | 1.04 | 100 | 1008.6 |
| 20260903023037 | 12 | 223 | 0.0 | 8.0 | 0.00 | 1.04 | 1.04 | 100 | 1008.7 |
| 20260903021542 | 12 | 196 | 0.0 | 6.4 | 0.03 | 1.04 | 1.04 | 100 | 1008.7 |
| 20260903020034 | 13 | 194 | 1.6 | 6.4 | 0.03 | 1.04 | 1.04 | 100 | 1008.5 |
| 20260903014524 | 12 | 197 | 0.0 | 8.0 | 0.03 | 1.04 | 1.04 | 100 | 1008.3 |
| 20260903013020 | 12 | 172 | 0.0 | 6.4 | 0.05 | 1.04 | 1.04 | 100 | 1008.4 |
| 20260903011515 | 13 | 197 | 1.6 | 8.0 | 0.03 | 1.02 | 1.02 | 100 | 1008.2 |
| 20260903010011 | 13 | 256 | 0.0 | 11.3 | 0.03 | 1.02 | 1.02 | 100 | 1008.2 |
| 20260903004510 | 13 | 183 | 1.6 | 11.3 | 0.03 | 1.02 | 1.02 | 100 | 1007.9 |
| 20260903003002 | 13 | 167 | 0.0 | 6.4 | 0.00 | 0.99 | 0.99 | 100 | 1008.1 |
| 20260903001559 | 13 | 201 | 1.6 | 8.0 | 0.00 | 0.99 | 0.99 | 100 | 1007.9 |
| 20260903000059 | 13 | 176 | 0.0 | 4.8 | 0.23 | 0.99 | 0.99 | 100 | 1007.7 |
| 20260902234557 | 13 | 231 | 0.0 | 4.8 | 0.30 | 0.99 | 0.99 | 100 | 1007.6 |
| 20260902233052 | 13 | 263 | 0.0 | 9.7 | 0.36 | 0.99 | 0.99 | 100 | 1007.6 |
| 20260902231540 | 13 | 205 | 1.6 | 16.1 | 0.38 | 0.99 | 0.99 | 100 | 1007.3 |
| 20260902230043 | 13 | 277 | 4.8 | 12.9 | 0.15 | 0.76 | 0.76 | 100 | 1006.9 |
| 20260902224532 | 13 | 174 | 3.2 | 25.7 | 0.08 | 0.69 | 0.69 | 100 | 1006.9 |
| 20260902223028 | 13 | 161 | 3.2 | 14.5 | 0.03 | 0.64 | 0.64 | 100 | 1006.8 |
| 20260902221523 | 13 | 202 | 3.2 | 12.9 | 0.03 | 0.61 | 0.61 | 100 | 1006.7 |
| 20260902220025 | 13 | 203 | 3.2 | 11.3 | 0.03 | 0.61 | 0.61 | 100 | 1006.7 |
| 20260902214532 | 13 | 223 | 4.8 | 12.9 | 0.03 | 0.61 | 0.61 | 100 | 1006.8 |
| 20260902213009 | 13 | 201 | 3.2 | 12.9 | 0.03 | 0.61 | 0.61 | 100 | 1006.7 |
| 20260902211506 | 13 | 249 | 3.2 | 9.7 | 0.03 | 0.58 | 0.58 | 100 | 1006.6 |
| 20260902204557 | 13 | 200 | 4.8 | 20.9 | 0.03 | 0.58 | 0.58 | 100 | 1006.4 |
| 20260902203052 | 13 | 192 | 3.2 | 11.3 | 0.03 | 0.58 | 0.58 | 100 | 1006.3 |
| 20260902201549 | 13 | 108 | 1.6 | 9.7 | 0.03 | 0.56 | 0.56 | 100 | 1006.1 |
| 20260902200044 | 13 | 204 | 0.0 | 8.0 | 0.05 | 0.56 | 0.56 | 100 | 1006.0 |
| 20260902194539 | 13 | 192 | 0.0 | 14.5 | 0.08 | 0.56 | 0.56 | 100 | 1006.0 |
| 20260902193035 | 13 | 216 | 3.2 | 14.5 | 0.13 | 0.56 | 0.56 | 100 | 1006.0 |
| 20260902191530 | 13 | 177 | 3.2 | 9.7 | 0.15 | 0.53 | 0.53 | 100 | 1005.9 |
| 20260902190026 | 13 | 215 | 0.0 | 12.9 | 0.28 | 0.51 | 0.51 | 100 | 1005.8 |
| 20260902184522 | 13 | 207 | 0.0 | 8.0 | 0.28 | 0.48 | 0.48 | 100 | 1006.0 |
| 20260902183017 | 13 | 207 | 0.0 | 6.4 | 0.23 | 0.43 | 0.43 | 100 | 1006.3 |